EW4543 Weather Reports


Display with metric or nautical units.
time (UTC)temp
F
wind
direction
speed
MPH
gust
MPH
rain 1hr
in
rain 24hr
in
rain mn
in
humidity
%
barometer
mb
20260903191603 69 295 0.0 7.0 0.00 0.01 0.00 56 1009.9
20260903190053 68 198 1.0 4.0 0.00 0.01 0.00 57 1010.1
20260903184553 69 276 1.0 3.0 0.00 0.01 0.00 55 1010.4
20260903183113 69 223 0.0 5.0 0.00 0.01 0.00 52 1010.4
20260903181549 67 124 0.0 4.0 0.00 0.01 0.00 54 1010.5
20260903180045 66 204 0.0 3.0 0.00 0.01 0.00 54 1010.5
20260903174545 66 210 0.0 3.0 0.00 0.01 0.00 55 1010.4
20260903173043 66 235 0.0 4.0 0.00 0.01 0.00 53 1010.6
20260903171542 66 307 1.0 2.0 0.00 0.01 0.00 55 1010.6
20260903170041 67 237 0.0 3.0 0.00 0.01 0.00 54 1010.6
20260903164539 66 205 0.0 2.0 0.00 0.01 0.00 56 1010.5
20260903163035 65 145 0.0 1.0 0.00 0.01 0.00 55 1010.6
20260903161541 64 117 0.0 1.0 0.00 0.01 0.00 56 1010.7
20260903160029 63 218 0.0 1.0 0.00 0.01 0.00 60 1010.9
20260903154525 61 288 0.0 1.0 0.00 0.01 0.00 66 1011.0
20260903153021 60 330 0.0 1.0 0.00 0.01 0.00 73 1011.1
20260903151516 58 330 0.0 1.0 0.00 0.01 0.00 77 1011.1
20260903150011 57 330 0.0 1.0 0.00 0.01 0.00 81 1011.1
20260903144509 55 330 0.0 0.0 0.00 0.01 0.00 82 1011.1
20260903143006 55 330 0.0 0.0 0.00 0.01 0.00 83 1011.0
20260903141504 54 330 0.0 1.0 0.00 0.01 0.00 84 1011.0
20260903140004 53 342 0.0 0.0 0.00 0.01 0.00 84 1010.9
20260903134502 53 342 0.0 0.0 0.00 0.01 0.00 84 1010.9
20260903133046 53 342 0.0 0.0 0.00 0.01 0.00 84 1010.8
20260903131521 53 342 0.0 0.0 0.00 0.01 0.00 84 1010.8
20260903130104 53 342 0.0 0.0 0.00 0.01 0.00 83 1010.8
20260903124603 53 342 0.0 0.0 0.00 0.01 0.00 83 1010.9
20260903123056 53 342 0.0 0.0 0.00 0.01 0.00 84 1011.0
20260903121600 53 342 0.0 0.0 0.00 0.01 0.00 83 1011.0
20260903120056 53 342 0.0 0.0 0.00 0.01 0.00 83 1011.2
20260903114553 54 342 0.0 0.0 0.00 0.01 0.00 83 1011.3
20260903113051 54 342 0.0 0.0 0.00 0.01 0.00 83 1011.4
20260903111549 53 342 0.0 0.0 0.00 0.01 0.00 83 1011.5
20260903110048 53 342 0.0 0.0 0.00 0.01 0.00 83 1011.7
20260903104547 53 342 0.0 0.0 0.00 0.01 0.00 83 1011.7
20260903103045 53 342 0.0 0.0 0.00 0.01 0.00 84 1011.8
20260903101545 52 342 0.0 0.0 0.00 0.01 0.00 84 1011.8
20260903100044 52 342 0.0 1.0 0.00 0.01 0.00 84 1011.8
20260903094543 52 342 0.0 0.0 0.00 0.01 0.00 85 1011.8
20260903093043 51 342 0.0 0.0 0.00 0.01 0.00 85 1012.0
20260903091552 51 342 0.0 0.0 0.00 0.01 0.00 85 1012.0
20260903090037 52 342 0.0 0.0 0.00 0.01 0.00 84 1012.1
20260903084535 52 342 0.0 0.0 0.00 0.01 0.00 83 1012.1
20260903083034 52 342 0.0 0.0 0.00 0.01 0.00 83 1012.2
20260903081533 52 342 0.0 0.0 0.00 0.01 0.00 83 1012.2
20260903080032 53 342 0.0 0.0 0.00 0.01 0.00 83 1012.2
20260903074530 53 342 0.0 0.0 0.00 0.01 0.00 83 1012.2
20260903073042 53 342 0.0 0.0 0.00 0.01 0.00 82 1012.3
20260903071528 53 342 0.0 0.0 0.00 0.01 0.00 83 1012.3
20260903070024 53 342 0.0 0.0 0.00 0.01 0.00 82 1012.4
20260903064526 54 342 0.0 0.0 0.00 0.01 0.01 81 1012.4
20260903063022 54 342 0.0 0.0 0.00 0.01 0.01 81 1012.3
20260903061523 55 342 0.0 0.0 0.00 0.01 0.01 80 1012.5
20260903060022 55 342 0.0 0.0 0.00 0.01 0.01 79 1012.6
20260903054523 55 342 0.0 0.0 0.00 0.01 0.01 78 1012.6
20260903053020 56 342 0.0 0.0 0.00 0.01 0.01 77 1012.6
20260903051520 56 342 0.0 0.0 0.00 0.01 0.01 77 1012.7
20260903050020 57 342 0.0 0.0 0.00 0.01 0.01 75 1012.7
20260903044523 58 342 0.0 1.0 0.00 0.01 0.01 74 1012.7
20260903043018 58 342 0.0 0.0 0.00 0.01 0.01 73 1012.5
20260903041518 59 342 0.0 0.0 0.00 0.01 0.01 71 1012.3
20260903040023 60 342 0.0 1.0 0.00 0.01 0.01 69 1012.1
20260903034520 61 342 0.0 0.0 0.00 0.01 0.01 67 1012.0
20260903033017 63 342 0.0 0.0 0.00 0.01 0.01 65 1011.8
20260903031517 64 342 0.0 0.0 0.00 0.01 0.01 63 1011.7
20260903030017 65 342 0.0 1.0 0.00 0.01 0.01 60 1011.7
20260903024535 66 342 0.0 1.0 0.00 0.01 0.01 59 1011.7
20260903023036 66 298 0.0 1.0 0.00 0.01 0.01 59 1011.6
20260903021535 67 303 0.0 1.0 0.00 0.01 0.01 57 1011.7
20260903020042 68 136 0.0 1.0 0.00 0.01 0.01 55 1011.7
20260903014533 68 295 1.0 7.0 0.00 0.01 0.01 55 1011.7
20260903013032 69 288 0.0 2.0 0.00 0.01 0.01 54 1011.8
20260903011530 70 238 0.0 3.0 0.00 0.01 0.01 53 1011.9
20260903010031 70 243 0.0 5.0 0.00 0.01 0.01 52 1011.9
20260903004533 70 288 1.0 5.0 0.00 0.01 0.01 52 1011.9
20260903003027 70 290 1.0 7.0 0.00 0.01 0.01 51 1011.9
20260903001526 70 271 0.0 4.0 0.00 0.01 0.01 51 1012.1
20260903000032 71 205 0.0 4.0 0.00 0.01 0.01 50 1012.2
20260902234527 72 193 1.0 5.0 0.00 0.01 0.01 48 1012.2
20260902233022 72 236 0.0 6.0 0.01 0.01 0.01 49 1012.1
20260902231523 72 231 1.0 5.0 0.01 0.01 0.01 49 1012.3
20260902230019 71 205 1.0 5.0 0.01 0.01 0.01 49 1012.2
20260902224517 72 295 2.0 6.0 0.01 0.01 0.01 48 1012.4
20260902223027 74 268 0.0 6.0 0.00 0.00 0.00 46 1012.4
20260902221520 73 245 1.0 6.0 0.00 0.00 0.00 46 1012.4
20260902220012 73 204 1.0 6.0 0.00 0.00 0.00 45 1012.6
20260902214510 73 285 2.0 6.0 0.00 0.00 0.00 44 1012.8
20260902213009 75 222 0.0 3.0 0.00 0.00 0.00 43 1012.8
20260902211513 76 203 1.0 5.0 0.00 0.00 0.00 42 1012.9
20260902210006 75 188 2.0 6.0 0.00 0.00 0.00 42 1012.8
20260902204505 73 174 1.0 9.0 0.00 0.00 0.00 45 1013.0
20260902203005 74 181 1.0 4.0 0.00 0.00 0.00 43 1013.2
20260902201502 74 252 0.0 3.0 0.00 0.00 0.00 42 1013.4
20260902200001 73 231 1.0 4.0 0.00 0.00 0.00 42 1013.4
20260902194559 72 202 1.0 4.0 0.00 0.00 0.00 41 1013.7
20260902193057 70 108 2.0 4.0 0.00 0.00 0.00 44 1013.9